Weather History for Frenchville, ME

Change the Weather History Date:

Sunday, May 12, 2013

  Actual Average Record
Temperature  
Mean Temperature 50 °F 49 °F  
Max Temperature 56 °F 59 °F 75 °F (2001)
Min Temperature 44 °F 39 °F 25 °F (2002)
Degree Days  
Heating Degree Days 15    
Month to date heating degree days 91  
Since 1 July heating degree days 8572  
Cooling Degree Days 0    
Month to date cooling degree days 4  
Year to date cooling degree days 4  
Moisture  
Dew Point 48 °F    
Average Humidity 90    
Maximum Humidity 100    
Minimum Humidity 67    
Precipitation  
Precipitation 0.33 in 0.08 in 0.33 in (2013)
Month to date precipitation 1.17 1.09  
Year to date precipitation 5.37 7.95  
Sea Level Pressure  
Sea Level Pressure 29.57 in    
Wind  
Wind Speed 7 mph (SW)    
Max Wind Speed 17 mph    
Max Gust Speed 23 mph    
Visibility 8 miles    
Events Rain    
T = Trace of Precipitation, MM = Missing Value Source: NWS Daily Summary

Daily Weather History Graph

Daily Weather History Graph

Search for Another Location

Airport:

Trip Planner

Search our weather history database for the weather conditions in past years. The results will help you decide how hot, cold, wet, or windy it might be!

Date:

Astronomy

May. 12, 2013 Rise Set
Actual Time 5:00 AM EDT 7:59 PM EDT
Civil Twilight 4:24 AM EDT 8:35 PM EDT
Nautical Twilight 3:38 AM EDT 9:21 PM EDT
Astronomical Twilight 2:42 AM EDT 10:18 PM EDT
Moon 6:50 AM EDT (5/12) 10:25 PM EDT (5/12)
Length of Visible Light 16h 10m
Length of Day
14h 58m
Waxing Crescent, 6% of the Moon is Illuminated
May 12
Waxing Crescent
May 18
First Quarter
May 25
Full
May 31
Last Quarter
Jun 8
New

Hourly Weather History & Observations

Time (EDT) Temp. Windchill Dew Point Humidity Pressure Visibility Wind Dir Wind Speed Gust Speed Precip Events Conditions
12:53 AM 53.1 °F - 53.1 °F 100% 29.61 in 0.8 mi SW 3.5 mph - 0.02 in   Mist
1:04 AM 53.6 °F - 53.6 °F 100% 29.61 in 1.8 mi SW 5.8 mph - N/A   Overcast
1:06 AM 53.6 °F - 53.6 °F 100% 29.61 in 4.0 mi SW 6.9 mph - N/A   Overcast
1:14 AM 53.6 °F - 53.6 °F 100% 29.61 in 10.0 mi SW 5.8 mph - N/A   Overcast
1:53 AM 51.1 °F - 48.9 °F 92% 29.62 in 10.0 mi West 11.5 mph - N/A   Overcast
2:53 AM 50.0 °F - 48.9 °F 96% 29.63 in 10.0 mi WSW 5.8 mph - N/A   Overcast
3:53 AM 50.0 °F - 46.0 °F 86% 29.63 in 10.0 mi WSW 8.1 mph - N/A   Overcast
4:53 AM 48.9 °F - 46.9 °F 93% 29.62 in 10.0 mi SSW 4.6 mph - N/A   Overcast
5:53 AM 48.9 °F - 46.0 °F 90% 29.65 in 10.0 mi South 5.8 mph - N/A   Overcast
6:53 AM 48.9 °F - 46.0 °F 90% 29.65 in 10.0 mi SW 4.6 mph - N/A   Overcast
7:10 AM 48.2 °F - 46.4 °F 93% 29.64 in 10.0 mi SW 3.5 mph - N/A   Overcast
7:45 AM 48.2 °F - 46.4 °F 93% 29.64 in 10.0 mi SW 3.5 mph - N/A   Overcast
7:53 AM 48.9 °F - 46.9 °F 93% 29.64 in 10.0 mi SW 3.5 mph - N/A   Overcast
8:07 AM 50.0 °F - 46.4 °F 87% 29.64 in 10.0 mi SW 4.6 mph - N/A   Overcast
8:53 AM 51.1 °F - 45.0 °F 80% 29.63 in 10.0 mi SW 4.6 mph - N/A   Overcast
9:53 AM 53.1 °F - 46.0 °F 77% 29.63 in 10.0 mi South 6.9 mph - N/A   Overcast
10:16 AM 53.6 °F - 46.4 °F 77% 29.61 in 10.0 mi Variable 3.5 mph - N/A   Mostly Cloudy
10:40 AM 55.4 °F - 46.4 °F 72% 29.59 in 10.0 mi Calm Calm - N/A   Mostly Cloudy
10:53 AM 55.0 °F - 46.0 °F 72% 29.60 in 10.0 mi Variable 4.6 mph - N/A   Overcast
11:53 AM 55.9 °F - 46.0 °F 69% 29.59 in 10.0 mi SE 6.9 mph - N/A   Overcast
12:16 PM 55.4 °F - 44.6 °F 67% 29.57 in 10.0 mi SE 4.6 mph - N/A   Overcast
12:53 PM 55.0 °F - 46.9 °F 74% 29.57 in 10.0 mi SSE 4.6 mph - 0.00 in Rain Light Rain
1:53 PM 54.0 °F - 48.0 °F 80% 29.55 in 10.0 mi SSE 4.6 mph - 0.01 in Rain Light Rain
2:40 PM 51.8 °F - 48.2 °F 88% 29.55 in 2.5 mi SSE 3.5 mph - 0.09 in Rain Heavy Rain
2:53 PM 52.0 °F - 50.0 °F 93% 29.55 in 4.0 mi South 4.6 mph - 0.12 in Rain Light Rain
3:04 PM 51.8 °F - 50.0 °F 94% 29.54 in 6.0 mi Calm Calm - 0.01 in Rain Light Rain
3:12 PM 51.8 °F - 50.0 °F 94% 29.54 in 4.0 mi SE 3.5 mph - 0.03 in Rain Rain
3:33 PM 51.8 °F - 50.0 °F 94% 29.53 in 3.0 mi SE 5.8 mph - 0.05 in Rain Rain
3:53 PM 51.1 °F - 51.1 °F 100% 29.53 in 2.5 mi SSE 3.5 mph - 0.08 in Rain Light Rain
3:56 PM 51.8 °F - 51.8 °F 100% 29.52 in 3.0 mi SE 3.5 mph - 0.00 in Rain Light Rain
4:16 PM 51.8 °F - 50.0 °F 94% 29.51 in 10.0 mi Calm Calm - 0.00 in Rain Light Rain
4:30 PM 51.8 °F - 50.0 °F 94% 29.51 in 10.0 mi Calm Calm - 0.00 in Rain Light Rain
4:53 PM 51.1 °F - 50.0 °F 96% 29.52 in 8.0 mi SSW 5.8 mph - 0.02 in Rain Light Rain
4:57 PM 51.8 °F - 50.0 °F 94% 29.51 in 6.0 mi SW 4.6 mph - 0.00 in Rain Light Rain
5:53 PM 51.1 °F - 50.0 °F 96% 29.51 in 7.0 mi WSW 4.6 mph - 0.04 in Rain Light Rain
6:18 PM 51.8 °F - 50.0 °F 94% 29.51 in 8.0 mi West 3.5 mph - 0.01 in Rain Light Rain
6:27 PM 51.8 °F - 51.8 °F 100% 29.51 in 10.0 mi Calm Calm - 0.01 in Rain Light Rain
6:42 PM 51.8 °F - 50.0 °F 94% 29.51 in 10.0 mi West 3.5 mph - 0.01 in   Overcast
6:53 PM 52.0 °F - 50.0 °F 93% 29.52 in 10.0 mi West 4.6 mph - 0.01 in   Overcast
7:13 PM 51.8 °F - 50.0 °F 94% 29.51 in 10.0 mi West 5.8 mph - N/A   Overcast
7:40 PM 51.8 °F - 50.0 °F 94% 29.52 in 10.0 mi West 4.6 mph - N/A   Overcast
7:53 PM 51.1 °F - 50.0 °F 96% 29.54 in 10.0 mi West 4.6 mph - N/A   Overcast
7:59 PM 51.8 °F - 50.0 °F 94% 29.54 in 2.0 mi WSW 5.8 mph - N/A   Overcast
8:01 PM 51.8 °F - 50.0 °F 94% 29.54 in 1.2 mi WSW 9.2 mph - 0.00 in Rain Light Rain
8:05 PM 51.8 °F - 48.2 °F 88% 29.53 in 1.2 mi West 12.7 mph 17.3 mph 0.02 in Rain Rain
8:08 PM 51.8 °F - 48.2 °F 88% 29.53 in 1.5 mi WNW 11.5 mph 17.3 mph 0.03 in Rain Rain
8:10 PM 51.8 °F - 48.2 °F 88% 29.53 in 3.0 mi West 8.1 mph - 0.03 in Rain Rain
8:53 PM 50.0 °F - 48.0 °F 93% 29.55 in 10.0 mi WNW 9.2 mph - 0.04 in   Overcast
9:53 PM 48.0 °F - 43.0 °F 83% 29.57 in 10.0 mi West 16.1 mph 23.0 mph N/A   Overcast
10:53 PM 46.0 °F 41.4 °F 39.9 °F 79% 29.59 in 10.0 mi West 9.2 mph - 0.01 in   Overcast
11:53 PM 44.1 °F 42.5 °F 37.0 °F 76% 29.59 in 10.0 mi SW 3.5 mph - N/A   Overcast